Wind_Speed
5 5 5 4 4 3 3 3 4 5 5 5 5 6 5 5 5 5 5 5 5 5 4 3 3 2 2 2 2 2 2 3 5 5 5 6 7 7 6 6 7 6 7
5 5 5 4 4 3 2 2 3 4 4 5 5 5 5 6 6 6 6 5 5 5 4 4 3 3 3 3 3 3 3 3 4 5 5 6 7 7 7 7 7 7 6
6 6 6 5 4 3 2 2 3 3 4 4 5 6 6 6 6 6 6 6 5 5 5 4 4 4 4 4 4 4 4 4 5 5 6 6 7 8 7 8 8 8 7
6 7 7 5 4 3 2 1 2 2 3 4 4 5 5 6 7 7 7 6 6 6 5 5 5 5 4 5 5 5 5 5 5 6 6 7 7 8 8 8 9 9 8
5 6 6 5 4 3 2 1 0 1 2 3 4 5 5 6 6 7 7 6 6 6 6 6 6 6 6 6 5 5 6 6 6 7 7 8 8 8 9 9 9 9 9
6 6 6 5 4 3 2 1 0 1 2 3 4 5 6 6 7 7 7 7 7 7 7 7 6 6 7 6 6 6 6 6 7 7 8 8 8 8 9 9 9 9 10
7 6 6 5 5 4 3 1 0 1 2 3 4 5 6 7 7 8 7 7 7 8 7 7 6 7 6 6 6 7 6 6 7 8 8 9 9 9 9 10 10 10 10
8 7 7 6 4 4 3 2 0 1 2 3 4 4 5 6 7 8 8 8 8 7 7 6 6 6 6 6 7 7 7 7 8 9 9 9 9 9 10 10 10 10 10
9 8 7 6 5 4 3 2 0 1 2 3 4 4 6 7 7 8 8 8 8 7 6 6 7 7 7 7 7 7 7 8 8 9 9 9 9 9 10 10 10 11 11
10 9 8 7 6 5 4 3 1 1 3 3 4 5 6 7 7 8 8 8 8 7 6 6 6 7 7 7 7 7 8 8 8 9 10 10 10 10 10 11 10 11 11
10 10 9 8 7 6 5 3 2 1 2 4 4 5 6 7 8 8 8 8 7 6 6 6 6 6 7 8 8 8 7 8 8 9 10 10 10 10 10 11 11 11 11
10 10 10 9 7 7 5 4 3 2 2 3 4 5 6 7 7 8 8 8 6 6 6 6 6 7 7 8 8 8 7 7 8 8 9 10 11 11 10 11 11 12 12
11 11 10 9 8 7 6 4 3 2 3 4 4 5 6 7 7 8 8 7 6 6 6 6 6 6 7 7 8 7 7 7 8 8 9 10 11 11 11 11 12 12 12
10 10 10 9 9 7 6 5 3 3 3 4 5 5 6 7 7 7 7 6 6 6 6 6 6 6 6 6 7 7 7 7 8 8 9 9 10 10 10 10 11 12 13
11 10 10 9 9 8 6 5 4 4 4 4 4 5 6 7 7 7 6 6 6 6 6 6 6 6 5 6 6 6 7 7 8 8 8 8 9 9 9 10 11 11 12
12 11 10 9 9 8 7 5 4 4 4 4 4 5 6 7 7 6 7 7 7 6 6 6 6 5 4 4 5 5 6 7 7 8 8 8 8 8 8 9 10 11 12
11 11 10 9 9 8 7 5 4 4 4 4 5 6 6 7 6 6 7 7 7 6 6 6 5 5 4 3 3 4 5 6 7 7 7 7 8 8 8 8 10 11 11
11 10 10 8 7 7 6 5 4 4 4 4 6 6 7 7 6 6 6 7 6 6 5 5 4 4 3 2 2 3 4 5 6 6 6 7 7 8 8 8 9 10 11
12 10 9 8 7 7 6 5 5 4 4 4 5 6 6 6 6 6 6 6 6 5 5 4 4 4 3 2 1 2 4 5 5 6 6 6 7 8 8 8 9 10 11
12 10 9 8 8 7 7 6 5 4 4 4 4 5 6 6 6 5 5 6 6 5 5 5 4 4 3 2 1 1 3 4 4 4 5 5 6 6 8 8 8 9 10
13 11 10 9 8 7 7 6 5 4 4 4 4 4 5 5 5 5 5 5 5 5 5 4 4 3 3 2 1 1 2 3 4 4 4 4 5 5 6 8 8 9 9
13 12 11 10 9 7 7 7 6 5 4 3 3 4 4 4 4 4 4 5 4 5 4 4 4 4 3 2 1 0 1 2 3 3 3 3 4 4 5 7 8 8 9
14 13 12 10 10 8 7 7 6 5 4 3 3 3 3 3 4 4 4 4 4 4 4 4 4 4 4 3 2 1 1 2 2 3 3 3 3 3 4 5 7 8 8
15 14 13 11 10 9 8 7 6 6 5 4 3 3 3 3 3 3 3 3 4 4 4 4 4 4 3 3 2 2 1 1 1 2 2 3 3 3 3 4 5 6 8
15 15 13 13 11 10 8 7 7 6 5 5 3 3 2 2 2 3 3 3 3 4 4 4 4 3 3 2 2 2 2 1 0 1 2 2 3 3 4 4 5 6 7
16 15 14 13 11 10 9 8 7 7 6 5 4 3 3 2 2 2 2 2 3 3 4 3 3 3 3 3 2 2 1 1 0 0 1 2 2 3 4 5 5 6 6
Wind_Direction
155 154 159 168 150 131 110 86 70 56 48 39 32 25 18 10 4 359 353 349 345 341 337 331 325 313 283 267 258 244 233 219 207 204 206 201 195 193 189 184 180 177 176
165 163 172 181 162 145 116 88 68 54 43 34 24 15 7 4 1 354 349 342 337 332 327 320 312 306 288 272 264 253 247 233 210 209 208 202 201 200 198 194 192 188 185
176 174 180 187 174 160 132 101 75 50 34 26 15 10 1 358 356 349 344 338 331 324 316 308 300 298 292 281 272 261 250 235 219 217 214 210 210 205 204 202 199 197 196
185 181 182 183 179 167 152 128 70 36 26 12 6 4 357 352 351 345 339 334 328 320 311 302 294 288 287 281 275 261 248 236 227 223 220 216 215 212 211 207 205 204 201
182 179 179 177 184 189 181 163 86 18 1 356 359 358 348 346 343 340 335 332 326 319 309 299 291 283 278 275 272 259 248 240 231 227 225 222 221 221 217 213 212 209 206
180 177 176 173 186 186 191 189 189 349 358 1 357 350 342 343 342 338 334 331 325 316 307 297 290 284 280 275 269 256 247 239 233 230 228 226 226 225 221 217 214 213 211
186 179 179 179 184 185 177 156 339 349 2 359 353 340 340 343 344 341 334 330 325 315 307 299 289 281 277 271 262 253 245 240 237 233 232 230 228 226 224 220 218 216 213
187 184 184 183 193 187 180 160 95 345 347 354 2 352 348 342 339 338 333 329 324 316 307 299 290 280 274 269 261 254 248 242 238 234 235 235 232 230 227 223 220 218 217
190 189 191 194 190 191 201 203 254 340 349 349 353 353 348 342 339 339 335 329 322 316 308 299 293 283 275 271 265 257 248 241 235 233 234 233 233 232 229 226 223 220 220
196 195 198 192 189 193 198 207 220 314 335 347 351 354 347 341 340 338 335 328 322 316 308 301 292 283 274 268 264 258 251 241 237 234 234 233 234 233 229 226 226 226 222
197 198 196 192 192 193 198 207 217 271 323 346 346 347 343 342 343 339 335 329 321 314 309 303 294 283 274 267 262 259 254 245 238 237 235 234 233 232 229 227 226 225 223
197 196 192 193 193 196 201 207 226 257 311 330 333 338 337 339 340 337 335 335 326 317 311 305 296 285 275 269 264 259 253 248 238 237 237 233 232 231 229 227 225 225 223
196 191 190 193 195 198 202 209 225 266 305 316 319 326 333 334 336 335 335 335 331 323 316 309 301 292 282 274 267 260 252 248 239 240 240 237 234 232 230 228 228 227 225
200 195 191 193 196 199 208 219 235 268 295 310 323 330 330 331 333 337 335 332 329 322 318 314 309 302 292 279 267 259 250 247 242 241 241 238 236 232 231 229 228 227 225
199 195 191 196 200 205 217 226 237 265 292 308 318 323 327 329 331 335 336 335 332 325 321 313 312 307 297 285 271 261 251 246 240 238 239 237 234 230 229 229 226 224 223
193 197 197 200 208 208 214 223 237 262 285 301 312 318 323 326 329 332 335 336 333 328 325 320 316 316 308 288 268 254 244 240 238 235 235 237 236 231 229 226 223 223 222
193 199 199 201 206 206 209 225 243 266 279 295 309 318 320 325 330 330 333 337 334 331 326 323 319 319 314 294 263 244 236 232 231 231 232 232 233 231 230 224 223 221 222
194 197 199 200 202 206 212 228 252 270 275 293 309 316 321 325 331 332 334 339 338 337 336 333 330 329 324 307 267 243 232 228 227 227 231 233 232 231 230 224 222 221 222
194 194 201 204 202 208 216 231 250 265 277 294 311 320 328 329 331 336 340 341 343 344 345 343 339 340 340 326 282 251 231 224 222 222 226 228 230 229 229 222 221 222 222
198 197 203 209 208 211 217 232 245 258 275 295 312 319 328 335 336 339 345 347 346 347 348 349 349 350 350 341 320 264 229 217 212 211 217 223 226 230 231 229 226 223 222
201 201 206 212 212 218 227 235 250 263 283 298 308 317 326 336 341 348 355 356 357 356 355 355 356 357 357 350 327 246 221 209 202 199 206 217 226 232 235 234 230 224 224
206 205 208 212 214 219 230 242 253 261 271 287 301 314 322 335 343 351 358 5 6 6 5 5 7 8 10 18 24 156 187 189 192 200 209 224 230 235 236 238 238 235 233
208 207 209 214 217 220 228 241 251 251 254 269 289 305 319 335 343 346 354 10 16 17 15 15 18 18 22 31 41 58 145 189 189 206 223 232 230 233 238 242 240 239 236
208 209 211 214 218 224 228 235 244 245 247 258 273 293 313 326 342 347 350 11 17 18 18 19 22 21 24 34 43 50 75 126 199 202 213 226 230 232 240 247 242 242 242
210 211 212 217 219 223 229 233 238 240 244 249 260 277 291 309 334 343 354 5 9 8 8 15 20 15 16 22 34 44 62 77 186 220 225 229 237 245 253 259 258 255 254
211 212 216 220 221 224 228 232 235 235 242 243 245 257 271 281 298 331 346 345 355 357 359 4 1 1 4 7 13 14 24 36 96 179 259 257 255 259 262 268 272 266 264
Height
5883 5884 5884 5885 5885 5886 5887 5887 5887 5887 5887 5887 5887 5887 5887 5887 5886 5886 5886 5886 5887 5887 5887 5887 5887 5888 5888 5888 5889 5889 5890 5890 5891 5892 5893 5894 5894 5896 5897 5898 5900 5901 5902
5883 5884 5885 5885 5885 5886 5887 5887 5887 5887 5887 5887 5887 5887 5887 5886 5886 5886 5886 5886 5886 5886 5886 5886 5887 5887 5887 5887 5888 5889 5889 5890 5890 5891 5892 5893 5894 5895 5897 5898 5899 5901 5902
5883 5884 5885 5885 5886 5886 5887 5887 5887 5888 5888 5888 5887 5887 5887 5886 5886 5886 5886 5885 5885 5885 5885 5886 5886 5886 5886 5887 5887 5888 5889 5889 5890 5891 5892 5893 5894 5895 5896 5897 5899 5900 5901
5883 5884 5885 5886 5886 5887 5887 5887 5888 5888 5888 5888 5888 5887 5887 5887 5886 5886 5885 5885 5885 5884 5885 5885 5885 5886 5886 5886 5887 5887 5888 5888 5889 5890 5891 5892 5893 5894 5895 5897 5898 5899 5901
5883 5884 5885 5886 5886 5887 5887 5888 5888 5888 5888 5888 5887 5887 5887 5886 5886 5885 5885 5884 5884 5884 5884 5884 5884 5885 5885 5885 5885 5886 5886 5887 5888 5889 5890 5891 5892 5893 5895 5896 5897 5899 5900
5883 5884 5885 5886 5886 5887 5888 5888 5888 5888 5888 5888 5887 5887 5887 5886 5885 5885 5884 5883 5883 5882 5882 5883 5883 5883 5883 5884 5884 5885 5885 5886 5887 5888 5889 5890 5891 5892 5893 5895 5896 5897 5899
5882 5884 5885 5885 5886 5887 5887 5888 5888 5888 5888 5888 5887 5887 5887 5886 5885 5884 5883 5882 5882 5881 5881 5881 5881 5882 5882 5882 5883 5883 5884 5885 5886 5887 5888 5889 5890 5891 5892 5894 5895 5896 5898
5882 5883 5884 5885 5886 5887 5887 5888 5888 5888 5888 5888 5887 5887 5886 5886 5885 5883 5882 5881 5881 5880 5880 5880 5880 5880 5881 5881 5881 5882 5882 5883 5884 5885 5886 5887 5888 5889 5891 5892 5893 5895 5896
5881 5883 5884 5885 5886 5887 5887 5888 5888 5888 5888 5888 5887 5887 5886 5885 5884 5883 5882 5881 5880 5879 5879 5879 5878 5879 5879 5879 5880 5880 5881 5882 5883 5883 5884 5886 5887 5888 5889 5890 5892 5893 5894
5880 5882 5883 5885 5886 5887 5887 5888 5888 5888 5888 5887 5887 5886 5886 5885 5884 5882 5881 5880 5879 5878 5878 5877 5877 5877 5877 5878 5878 5878 5879 5880 5881 5882 5883 5884 5885 5886 5887 5889 5890 5891 5892
5879 5881 5883 5884 5885 5886 5887 5887 5887 5887 5887 5887 5886 5886 5885 5884 5883 5882 5880 5879 5878 5877 5877 5876 5876 5876 5876 5876 5876 5877 5877 5878 5879 5880 5881 5882 5883 5884 5885 5887 5888 5889 5891
5878 5880 5882 5883 5885 5886 5886 5887 5887 5887 5887 5886 5886 5885 5885 5884 5882 5881 5880 5878 5877 5876 5876 5875 5874 5874 5874 5874 5874 5875 5875 5876 5877 5878 5879 5880 5881 5882 5884 5885 5886 5888 5889
5877 5879 5881 5882 5884 5885 5886 5886 5887 5887 5886 5886 5885 5885 5884 5883 5882 5880 5879 5878 5876 5875 5875 5874 5873 5873 5872 5872 5873 5873 5873 5874 5875 5876 5877 5878 5879 5880 5882 5883 5884 5886 5887
5876 5878 5880 5881 5883 5884 5885 5885 5886 5886 5886 5885 5885 5884 5883 5882 5881 5879 5878 5877 5876 5875 5874 5873 5872 5871 5871 5871 5871 5871 5872 5872 5873 5874 5875 5876 5877 5878 5880 5881 5882 5884 5885
5875 5877 5879 5881 5882 5883 5884 5885 5885 5885 5885 5884 5884 5883 5882 5881 5880 5879 5877 5876 5875 5873 5873 5872 5871 5870 5869 5869 5869 5869 5870 5871 5872 5872 5873 5874 5876 5877 5878 5879 5880 5882 5883
5874 5876 5878 5879 5881 5882 5883 5884 5884 5884 5884 5884 5883 5882 5881 5880 5879 5877 5876 5875 5874 5872 5871 5870 5869 5869 5868 5868 5868 5868 5868 5869 5870 5871 5872 5873 5874 5875 5876 5877 5878 5880 5881
5873 5875 5877 5878 5879 5881 5882 5883 5883 5883 5883 5883 5882 5881 5880 5879 5878 5876 5875 5874 5873 5871 5870 5869 5868 5867 5867 5867 5866 5867 5867 5868 5868 5869 5870 5871 5872 5873 5874 5875 5877 5878 5880
5872 5874 5876 5877 5878 5880 5881 5882 5882 5882 5882 5882 5881 5880 5879 5878 5877 5876 5874 5873 5872 5870 5869 5868 5867 5866 5866 5866 5865 5865 5866 5866 5867 5868 5869 5870 5871 5872 5873 5874 5875 5876 5878
5872 5873 5875 5876 5878 5879 5880 5880 5881 5881 5881 5881 5880 5879 5878 5877 5876 5875 5874 5872 5871 5870 5869 5868 5867 5866 5865 5865 5864 5864 5865 5865 5866 5867 5868 5869 5870 5871 5872 5873 5873 5875 5876
5871 5872 5874 5875 5876 5878 5879 5879 5880 5880 5880 5880 5879 5879 5878 5877 5875 5874 5873 5871 5870 5869 5868 5867 5866 5865 5864 5864 5864 5864 5864 5864 5865 5866 5867 5868 5869 5869 5870 5871 5872 5873 5874
5869 5871 5873 5874 5875 5876 5877 5878 5879 5879 5879 5879 5878 5878 5877 5876 5875 5874 5872 5871 5870 5869 5868 5867 5866 5865 5864 5863 5863 5863 5863 5864 5865 5865 5866 5867 5868 5868 5869 5870 5870 5871 5873
5867 5869 5871 5872 5874 5875 5876 5877 5877 5878 5878 5878 5877 5877 5876 5875 5874 5873 5872 5871 5870 5869 5868 5867 5866 5865 5864 5863 5863 5863 5863 5864 5864 5865 5866 5866 5867 5868 5868 5869 5869 5870 5871
5865 5867 5869 5871 5872 5874 5875 5875 5876 5876 5876 5876 5876 5876 5875 5874 5873 5873 5871 5870 5870 5869 5868 5867 5866 5865 5864 5863 5863 5863 5863 5864 5864 5865 5865 5866 5866 5867 5867 5868 5868 5869 5870
5863 5866 5868 5869 5871 5872 5873 5874 5874 5875 5875 5875 5875 5875 5874 5873 5873 5872 5871 5870 5870 5869 5868 5867 5866 5865 5864 5864 5863 5863 5863 5864 5864 5864 5865 5865 5865 5866 5866 5867 5867 5867 5868
5861 5864 5865 5867 5869 5870 5871 5872 5873 5873 5874 5874 5874 5874 5873 5873 5872 5872 5871 5870 5869 5869 5868 5867 5866 5865 5865 5864 5864 5863 5863 5863 5863 5864 5864 5864 5865 5865 5865 5865 5865 5866 5866
5859 5861 5863 5865 5867 5868 5869 5870 5871 5872 5872 5872 5872 5873 5872 5872 5872 5871 5871 5870 5869 5868 5868 5867 5866 5865 5865 5864 5864 5864 5863 5863 5863 5863 5863 5864 5864 5864 5864 5864 5864 5864 5864